User: anonymous   Login
Location: Unspecified
(0.0000°N, 0.0000°E)
Time: 09:22:18
(UTC+00:00)
Language:

Cosmos 1574 - Orbit

View from above orbital plane
View from above orbital plane
View from above satellite
View from above satellite

Ground track
Ground track

The orbit data is extracted from the following two-line orbital elements,

1 15055U 84062A   18051.82029111 +.00000046 +00000-0 +33150-4 0  9991
2 15055 082.9603 161.9944 0026327 239.2197 232.5181 13.74296562688192
Epoch (UTC): 20 February 2018 19:41:13
Eccentricity: 0.0026327
inclination: 82.9603°
perigee height: 965 km
apogee height: 1003 km
right ascension of ascending node: 161.9944°
argument of perigee: 239.2197°
revolutions per day: 13.74296562
mean anomaly at epoch: 232.5181°
orbit number at epoch: 68819

The dashed part of the orbit path shows where the satellite is in the earth's shadow,  

DLR